Regional Weather Roundup
Issued by NWS

Home | Current Version | Previous Version | Graphics & Text | Print | Product List | Glossary On
Versions: 1 2 3 4 5 6 7 8 9 10 11 12 13 14 15 16 17 18 19 20 21 22 23 24 25 26 27 28 29 30 31 32 33 34 35 36 37 38 39 40 41 42 43 44 45 46 47 48 49 50
000
ASUS43 KBIS 201859
RWRND

NORTH DAKOTA REGIONAL WEATHER ROUNDUP
NATIONAL WEATHER SERVICE BISMARCK ND
200 PM CDT SAT SEP 20 2014

NOTE: "FAIR" INDICATES FEW OR NO CLOUDS BELOW 12,000 FEET WITH NO
SIGNIFICANT WEATHER AND/OR OBSTRUCTIONS TO VISIBILITY.


NDZ001>003-009>011-017-202000-
NORTHWEST NORTH DAKOTA

CITY           SKY/WX    TMP DP  RH WIND       PRES   REMARKS
WILLISTON      SUNNY     72  36  26 NW30G39   30.05R
MINOT          SUNNY     70  43  37 NW25G39   29.93R
$$

NDZ018>021-031>035-040>046-202000-
SOUTHWEST NORTH DAKOTA

CITY           SKY/WX    TMP DP  RH WIND       PRES   REMARKS
BISMARCK       MOSUNNY   72  46  39 NW22G36   29.97R
GARRISON         N/A     71  42  35 NW29G43   29.96R
HETTINGER ARPT MOSUNNY   72  40  31 NW23G35   30.08R
$$

NDZ004>008-012>016-024-026-027-054-202000-
NORTHEAST NORTH DAKOTA

CITY           SKY/WX    TMP DP  RH WIND       PRES   REMARKS
GRAND FORKS    CLOUDY    58  54  86 NW20G26   29.76R
DEVILS LAKE    PTSUNNY   63  52  67 NW20G26   29.83S
$$

NDZ022-023-025-028>030-036>039-047>053-202000-
SOUTHEAST NORTH DAKOTA

CITY           SKY/WX    TMP DP  RH WIND       PRES   REMARKS
FARGO          LGT RAIN  60  53  77 W18G35    29.80R
$$




USA.gov is the U.S. government's official web portal to all federal, state and local government web resources and services.